Lapse_Rate
2.6 2.7 2.4 2.2 2.1 2.2 2.2 1.8 1.7 1.6 1.8 1.9 2.0 2.2 2.2 2.1 3.0 6.4 6.1 6.4 7.3 6.0 5.4 7.3 8.7 7.8 8.4 8.2 8.3 7.9 6.5 6.5 6.5 6.5 6.5 7.2 6.6 7.7 8.2 7.7 7.9 8.2 8.1 8.6 9.1
1.9 2.3 2.3 2.2 2.0 1.9 1.8 1.9 1.9 1.9 1.9 2.0 1.9 2.1 2.0 1.9 4.7 6.7 6.3 6.7 6.4 5.3 6.2 5.9 7.1 7.7 7.8 7.7 7.8 6.8 6.5 6.5 6.6 6.6 6.5 7.0 7.0 7.3 7.1 7.2 7.3 7.8 8.5 8.9 9.1
2.4 2.2 2.0 1.7 1.7 1.8 1.7 1.5 1.5 1.9 1.7 2.0 2.1 2.1 2.0 2.4 6.3 7.2 5.9 6.5 6.1 5.4 6.1 6.4 6.8 7.9 7.3 7.6 7.3 6.9 6.5 6.5 6.7 7.2 7.3 7.0 7.1 7.6 7.0 6.5 7.2 7.3 8.0 8.5 8.5
1.8 1.8 1.7 1.4 1.3 1.1 1.1 1.4 1.4 1.4 1.8 1.8 1.9 2.0 1.9 4.0 6.5 6.7 6.2 6.2 5.7 5.8 6.8 7.4 8.2 7.3 6.7 6.5 7.4 6.5 6.9 6.9 7.0 7.4 7.2 6.7 7.5 7.0 7.3 7.4 8.3 8.3 8.5 8.5 8.3
2.0 1.7 1.3 1.3 1.0 0.9 0.9 1.0 1.2 1.6 1.6 1.5 2.0 1.9 3.7 6.8 7.4 5.9 5.5 5.6 6.1 6.2 6.0 6.6 7.7 7.4 6.5 6.8 7.0 6.5 6.6 7.2 7.4 7.4 7.4 7.5 6.9 6.8 7.3 8.1 8.5 8.4 8.3 8.3 8.4
2.0 1.8 1.4 1.1 0.9 0.5 0.5 0.8 1.0 1.3 1.5 1.8 2.0 1.8 4.7 6.8 6.1 5.7 5.4 6.3 6.4 6.7 6.9 7.7 7.8 7.9 7.2 6.9 6.6 7.1 7.0 7.1 7.3 7.2 7.3 6.7 6.8 7.1 7.3 8.0 8.0 8.1 8.1 8.4 8.4
2.5 2.1 1.6 1.3 0.9 0.9 0.8 0.8 1.1 1.1 1.1 1.8 1.9 3.0 5.5 7.0 6.2 5.8 5.8 6.2 6.3 6.7 7.5 7.3 7.5 7.9 7.7 6.6 7.6 7.2 6.5 6.5 6.7 7.0 6.6 7.3 6.5 6.5 7.6 7.9 7.6 7.9 8.1 8.2 8.4
3.2 2.7 2.3 1.7 1.1 1.1 1.2 1.3 1.3 1.2 1.5 1.9 2.3 3.5 7.4 6.1 6.3 6.6 6.9 6.9 6.8 6.9 7.1 7.3 7.5 8.0 7.5 7.8 7.0 6.5 6.5 6.5 6.5 6.7 6.9 6.8 6.5 6.5 7.7 7.7 7.5 7.8 8.0 8.1 8.3
3.5 3.4 3.1 2.6 1.6 1.2 1.4 1.3 1.0 1.4 2.2 2.1 3.7 4.6 7.2 6.1 7.1 6.6 6.7 6.9 6.6 7.2 7.1 7.6 8.0 7.5 7.4 6.5 6.5 6.5 6.5 6.5 6.5 6.7 6.5 6.5 6.5 6.4 7.7 7.5 7.3 7.6 7.9 8.0 8.1
4.3 3.9 3.7 3.3 2.5 1.8 1.5 1.0 1.4 2.4 3.2 3.4 4.0 5.9 6.6 6.8 6.5 6.4 6.7 6.8 6.8 7.0 7.7 7.8 7.4 6.5 6.5 6.5 6.5 6.5 6.5 6.5 6.5 6.5 6.5 6.5 6.5 6.5 7.3 7.3 7.2 7.5 7.8 7.9 8.0
4.7 4.3 4.1 3.9 2.9 2.8 2.3 3.3 5.9 6.4 5.7 5.8 5.9 6.0 5.9 6.5 5.7 6.7 6.9 7.1 7.1 7.7 6.5 7.1 6.5 6.5 6.5 6.5 6.5 6.5 6.5 6.5 6.5 6.5 6.5 6.5 6.5 6.5 6.9 7.1 7.0 7.3 7.6 7.8 8.0
5.1 4.8 4.6 4.0 3.4 3.5 4.0 4.3 4.9 4.3 6.9 5.2 5.0 5.2 5.5 5.9 7.0 6.8 7.1 7.4 7.1 6.5 6.7 6.5 6.5 6.5 6.5 6.5 6.5 6.5 6.5 6.5 6.5 6.5 6.5 6.5 6.5 6.5 6.5 6.7 7.1 7.2 7.5 7.7 8.0
5.4 4.7 4.8 4.5 3.6 4.2 4.5 4.6 4.7 5.8 7.1 7.0 6.3 6.7 6.9 6.5 7.1 7.3 7.4 7.1 6.7 6.5 6.5 6.5 6.5 6.6 6.5 6.5 6.5 6.5 6.5 6.5 6.5 6.5 6.5 6.5 6.5 6.5 6.5 6.9 7.1 7.4 7.6 7.9 8.0
5.3 4.9 4.9 5.4 6.0 4.2 5.6 4.7 4.6 6.0 6.5 6.5 6.8 6.9 7.0 6.7 6.9 6.6 6.9 7.2 6.8 6.5 6.5 6.5 6.7 6.5 6.5 6.5 6.5 6.5 6.5 6.5 6.5 6.5 6.5 6.5 6.5 6.5 6.5 6.5 6.5 7.1 7.5 7.7 7.9
5.2 5.5 5.2 5.1 5.7 6.7 5.8 4.4 4.8 6.5 6.5 6.5 6.8 6.8 6.6 7.1 7.1 6.7 6.5 7.6 6.5 6.5 6.5 6.5 6.5 6.5 6.5 6.5 6.5 6.5 6.5 6.5 6.5 6.5 6.5 6.5 6.5 6.5 6.5 6.5 6.5 6.6 7.4 7.7 7.9
4.5 5.3 5.3 6.0 5.5 5.6 4.1 4.1 6.0 6.5 6.5 6.5 6.9 6.6 6.6 7.0 7.0 7.3 7.3 7.3 7.3 6.5 6.5 6.5 7.1 6.5 6.5 6.5 6.5 6.5 6.5 6.5 6.5 6.5 6.5 6.5 6.5 6.5 6.5 6.5 6.5 6.7 7.4 7.7 7.9
4.3 4.6 5.3 5.0 7.0 4.2 4.0 6.2 6.5 6.5 6.5 6.5 6.5 6.5 6.5 6.5 6.5 6.5 6.5 6.5 6.5 6.5 6.5 6.5 6.5 6.6 6.8 6.5 6.5 6.5 6.5 6.5 6.5 6.5 6.5 6.5 6.5 6.5 6.5 6.5 6.5 6.5 7.3 7.7 8.0
4.3 4.1 4.2 4.8 4.0 3.8 5.5 6.6 6.5 6.5 6.5 6.5 6.5 6.5 6.5 6.5 6.5 6.5 6.5 6.5 6.5 6.5 6.5 6.5 6.5 6.5 6.5 6.5 6.5 6.5 6.5 6.5 6.5 6.5 6.5 6.5 6.5 6.5 6.5 6.8 7.2 7.3 7.5 7.8 7.9
4.4 5.6 5.9 4.9 4.2 4.8 7.5 6.5 6.5 6.5 6.5 6.5 6.5 6.5 6.5 6.5 6.5 6.5 6.5 6.5 6.5 6.5 6.5 6.5 6.5 6.5 6.5 6.5 6.5 6.5 6.5 6.5 6.5 6.5 6.5 6.5 6.5 6.5 6.5 6.5 6.7 6.9 7.3 7.5 7.8
6.2 6.1 6.5 4.6 4.3 6.3 6.7 6.5 6.5 6.7 6.7 6.5 6.5 6.5 6.5 6.5 6.5 6.5 6.5 6.5 6.5 6.6 6.8 6.5 6.5 6.5 6.5 6.7 6.6 6.5 6.5 6.5 6.5 6.5 6.5 6.5 6.5 6.5 6.5 6.5 6.5 6.5 7.0 7.4 7.8
6.7 7.6 6.8 4.8 5.6 7.6 6.5 6.5 6.5 7.1 7.0 6.5 6.5 6.5 6.5 6.5 6.5 6.5 6.5 6.5 6.5 6.5 6.8 6.5 6.5 6.5 6.5 6.5 6.5 6.5 6.5 6.5 6.5 6.5 6.5 6.5 6.5 6.5 6.5 6.5 6.5 6.5 7.2 7.5 7.7
6.3 6.7 6.8 6.3 6.9 7.1 6.5 6.5 6.6 6.7 7.2 6.7 6.6 6.5 6.5 6.5 6.5 6.5 6.5 6.5 7.1 6.8 6.5 6.5 6.5 6.5 6.5 6.5 6.5 6.5 6.5 6.5 6.5 6.5 6.5 6.5 6.5 6.5 6.5 6.5 6.8 6.9 7.3 7.7 7.9
7.5 7.1 7.2 6.8 6.5 6.5 6.7 6.5 6.9 6.5 6.6 6.5 6.5 6.5 6.5 6.5 6.5 6.5 6.5 6.9 7.1 6.6 6.5 6.5 6.5 6.5 6.5 6.5 6.5 6.5 6.5 6.5 6.5 6.5 6.5 6.5 6.5 6.5 6.5 6.5 7.0 7.0 7.4 7.6 7.7
7.9 6.5 7.6 7.9 7.3 6.6 6.5 6.5 6.5 7.2 6.8 6.9 6.6 6.7 6.5 6.5 6.5 6.5 6.5 6.6 7.1 6.9 6.8 6.8 6.5 6.5 6.5 6.5 6.5 6.5 6.5 6.5 6.5 6.5 6.5 6.5 6.5 6.5 6.5 6.5 6.7 7.1 7.5 7.5 7.5
6.8 6.9 6.8 6.5 6.7 6.7 6.7 6.5 6.5 6.5 6.9 7.0 6.5 6.5 6.5 6.5 6.5 6.5 6.5 6.5 6.8 7.0 6.8 6.5 6.5 6.5 6.5 6.5 6.5 6.5 6.5 6.5 6.5 6.5 6.5 6.5 6.5 6.5 6.5 6.5 6.8 7.3 7.2 7.3 7.4
7.3 7.1 7.7 7.1 7.2 6.6 6.6 6.5 6.5 6.5 6.5 6.5 6.5 6.5 6.5 6.5 6.5 6.5 6.5 6.5 6.5 6.6 6.5 6.5 6.5 6.5 6.5 6.5 6.5 6.5 6.5 6.5 6.5 6.5 6.5 6.5 6.5 6.5 6.9 7.2 7.0 7.1 6.7 7.1 7.3
5.6 6.4 7.2 7.0 6.8 6.5 6.5 6.5 6.5 6.7 7.0 7.1 6.8 6.5 6.5 6.6 7.1 7.3 7.4 7.3 7.0 6.5 6.5 6.5 6.5 6.5 6.5 6.5 6.5 6.5 6.5 6.5 6.5 6.5 6.5 6.5 6.5 6.5 6.5 6.5 6.8 7.1 6.5 6.6 7.1
Wind_Speed
15 15 16 16 16 17 17 17 16 16 16 16 16 17 19 21 17 4 7 7 11 17 13 10 8 8 4 4 5 1 2 1 1 2 3 5 8 5 7 12 9 8 11 13 15
14 15 16 17 17 18 18 17 17 16 15 16 16 17 17 18 3 8 4 10 12 15 9 12 10 9 3 4 3 3 1 2 0 3 8 12 10 13 9 13 15 14 10 12 15
15 15 16 17 18 19 19 19 18 17 16 14 14 15 16 10 1 3 5 10 11 11 5 6 4 4 5 4 5 3 2 0 1 5 8 11 15 10 13 12 9 13 14 14 16
16 17 18 19 20 19 20 20 19 18 15 15 13 14 17 3 1 2 5 9 9 8 7 7 5 2 3 4 4 2 1 2 2 4 9 13 14 12 16 23 17 15 15 14 14
17 18 19 20 20 20 21 20 19 19 16 13 11 13 3 2 3 2 6 6 4 4 9 6 10 3 3 4 4 2 4 5 8 12 12 10 12 17 22 21 19 11 9 14 12
18 19 20 20 21 22 22 21 20 18 14 8 7 10 2 2 3 2 5 2 5 5 5 6 5 3 2 3 3 7 10 12 7 7 6 10 12 8 7 4 10 12 15 16 16
18 19 21 23 24 24 22 21 21 14 8 3 3 1 1 3 0 2 2 2 2 3 2 2 2 4 3 2 5 5 7 5 1 4 5 12 12 10 13 8 13 20 19 17 18
18 20 21 23 25 26 23 21 14 8 3 1 0 1 2 1 3 1 1 1 3 2 2 1 1 1 3 4 3 4 3 7 2 4 1 7 11 11 10 18 20 22 19 18 19
19 21 23 25 28 27 22 14 2 2 3 3 1 3 4 1 1 2 2 1 1 2 2 2 1 2 2 6 2 2 6 9 7 4 5 3 21 17 21 14 15 16 17 16 16
19 21 24 27 31 25 20 1 3 1 1 2 1 2 1 1 2 3 0 1 1 2 2 1 1 0 2 6 5 10 7 9 12 10 10 17 20 19 15 11 12 12 12 12 13
19 21 24 26 28 24 9 1 2 2 4 4 3 3 1 4 2 1 2 1 0 2 2 2 1 3 5 2 3 7 10 15 15 6 15 13 19 18 14 9 9 11 13 13 13
17 19 23 24 19 18 6 5 3 2 6 2 4 4 3 1 2 2 3 2 1 2 3 2 2 2 2 3 5 7 12 13 8 1 12 15 21 12 6 4 7 11 14 16 16
17 16 21 25 9 5 8 5 4 3 3 3 2 2 1 2 2 3 6 2 1 1 3 3 2 2 2 5 8 8 9 11 12 19 6 12 8 6 2 6 5 8 9 12 15
19 15 17 28 0 5 2 6 4 4 3 2 2 1 2 1 2 1 2 3 1 2 0 2 1 2 3 3 2 9 1 9 14 13 5 8 6 9 5 9 7 14 15 16 18
16 16 13 9 4 3 6 10 1 3 3 1 2 1 1 1 2 1 1 1 3 2 3 1 2 2 3 1 3 5 8 12 7 5 8 2 4 5 3 7 13 13 16 17 16
15 15 12 3 2 3 9 7 3 2 3 1 1 1 2 0 1 1 1 1 1 1 2 3 0 2 3 1 4 11 8 5 2 2 3 3 5 8 4 9 10 12 16 17 18
17 15 9 3 4 8 9 2 2 2 1 3 2 2 2 2 1 2 2 1 2 4 2 2 3 2 3 3 1 6 7 3 3 2 4 4 8 11 12 7 8 11 16 17 17
20 11 2 3 7 7 2 2 3 2 2 2 3 4 2 2 1 2 3 3 2 1 1 3 1 4 5 2 1 4 5 2 5 6 11 8 6 4 7 8 9 7 13 16 17
14 2 1 4 5 3 2 2 2 1 2 5 4 3 1 1 2 3 2 3 3 3 5 3 3 2 2 2 2 2 1 1 4 4 5 4 7 15 3 7 11 9 17 18 16
4 3 2 8 4 2 2 3 2 1 4 2 3 1 2 2 3 2 1 3 4 2 3 2 6 1 2 2 1 3 1 2 1 6 7 6 10 9 11 15 12 14 19 14 13
2 2 3 8 2 1 2 2 3 4 2 3 2 3 2 2 1 2 1 3 1 1 1 3 3 0 2 6 2 3 3 3 3 2 4 7 7 5 9 9 12 17 15 12 11
2 1 4 4 1 1 1 3 5 4 1 3 2 4 4 2 3 3 3 1 2 3 1 2 4 5 5 4 4 3 2 3 3 1 5 6 9 2 4 8 14 15 13 9 9
2 3 1 3 1 1 2 3 3 3 3 3 3 2 1 3 3 4 2 3 7 3 1 3 2 6 3 2 2 3 4 5 5 3 11 6 7 4 7 14 13 10 9 9 8
1 1 1 1 1 1 3 3 4 4 4 3 4 4 2 3 5 3 2 1 7 4 3 5 3 10 11 15 15 18 15 10 9 6 7 14 21 23 16 16 13 9 9 10 7
1 1 1 1 2 3 2 3 6 5 2 2 1 4 3 4 3 4 1 5 5 3 1 3 5 6 11 14 20 25 26 19 18 20 10 7 12 20 19 14 9 7 7 8 8
1 1 0 2 3 2 1 1 4 3 3 2 2 7 5 4 4 5 3 2 5 2 1 2 4 7 16 16 10 22 23 25 20 18 20 24 26 20 6 5 4 3 4 6 7
1 1 2 1 1 3 1 1 3 6 4 4 6 8 9 10 4 8 12 15 16 15 15 11 6 5 8 6 19 14 3 5 5 10 8 7 7 2 5 4 3 1 2 3 5
Wind_Direction
10 5 4 359 355 352 348 346 346 342 338 339 339 339 341 341 330 17 39 346 349 346 337 346 22 14 32 55 35 309 213 117 105 247 339 335 325 338 301 283 278 280 290 313 323
4 3 357 352 348 345 343 343 340 340 337 335 336 336 337 339 334 45 11 352 355 354 357 6 6 1 65 30 27 9 360 66 357 293 297 307 307 311 297 286 279 280 271 293 312
2 357 354 348 344 342 339 338 335 334 332 330 333 332 333 326 220 46 350 360 360 357 356 353 337 7 54 6 15 16 50 62 256 287 303 303 301 310 288 283 286 294 296 298 297
357 353 349 345 342 337 335 333 330 327 327 324 326 329 327 259 309 49 348 355 2 5 27 9 12 39 38 17 354 276 184 253 293 286 296 295 305 288 277 275 292 296 293 291 286
354 352 348 344 339 334 330 328 324 321 317 315 322 330 326 191 116 49 352 358 13 9 30 18 29 14 33 344 331 308 334 295 287 289 281 286 277 284 279 277 284 293 280 284 281
357 352 347 342 336 332 328 322 320 317 308 303 314 324 250 193 98 9 351 10 25 16 36 26 25 9 58 327 323 327 301 292 295 300 272 295 291 296 281 287 279 282 284 278 273
359 354 349 344 337 333 326 323 323 326 310 278 301 321 264 83 241 341 357 19 26 356 20 47 3 322 335 316 325 302 306 311 197 355 320 312 273 227 284 295 285 293 291 284 267
353 350 347 343 336 331 331 330 324 338 36 139 229 250 66 29 309 61 356 111 31 82 349 343 300 13 328 312 275 302 240 349 32 332 107 328 296 311 287 295 297 294 292 288 284
349 345 345 341 338 335 331 325 290 54 103 139 224 295 113 331 242 11 5 355 63 61 90 110 260 36 292 333 263 17 329 338 331 313 314 281 297 307 314 306 296 295 298 298 296
342 343 342 342 340 330 332 18 179 172 146 218 205 232 111 43 330 328 54 344 101 120 171 44 350 188 45 4 354 324 327 322 316 326 309 297 288 306 311 316 314 323 323 308 305
336 340 338 341 341 336 347 249 301 172 40 331 332 298 299 329 283 318 320 209 205 103 14 32 275 37 15 12 321 296 289 298 308 351 324 310 301 307 301 308 328 340 336 325 320
329 335 333 339 342 353 10 57 54 319 317 335 278 274 257 316 308 355 301 255 353 49 324 227 109 97 339 259 282 282 294 311 310 340 323 315 306 304 287 287 318 327 329 333 327
329 327 331 335 339 23 50 52 322 178 273 292 247 285 39 189 36 341 332 332 31 107 9 291 89 206 281 302 298 294 279 316 308 326 285 310 272 304 186 291 338 350 340 334 331
340 335 341 334 295 345 43 344 317 196 294 96 152 107 153 321 124 46 13 323 274 323 54 265 110 256 272 286 276 309 266 299 309 328 322 5 301 320 329 320 336 347 349 346 340
334 340 348 10 321 325 341 333 313 225 334 85 111 100 75 330 2 129 12 265 282 316 265 93 204 264 265 210 195 285 308 302 308 290 316 152 276 293 329 326 338 340 345 348 344
333 330 335 316 300 311 327 319 233 261 256 100 71 360 304 101 142 303 243 115 346 255 247 280 182 240 328 295 245 302 291 271 195 248 255 112 4 290 327 325 315 333 343 345 342
330 313 320 286 312 330 318 272 297 221 26 32 10 7 337 293 309 348 327 271 300 319 359 288 185 160 246 276 218 307 315 328 299 287 312 151 301 261 299 310 301 314 336 342 344
330 320 293 282 318 324 287 253 248 2 2 344 301 289 278 1 161 320 291 286 177 329 16 336 263 179 163 302 291 17 345 24 309 318 304 316 235 298 320 295 292 292 342 344 349
331 334 307 10 351 319 262 216 263 214 342 327 288 272 135 148 331 338 295 324 334 219 331 314 266 129 205 172 252 118 24 34 276 276 271 264 278 280 273 278 316 318 339 343 344
342 321 8 338 346 273 224 259 279 272 315 268 288 340 304 1 329 9 347 52 352 335 334 340 293 143 100 180 155 268 82 247 153 313 307 286 302 283 319 330 330 331 332 336 340
343 305 19 338 294 251 235 260 305 296 266 259 292 292 275 293 271 257 208 129 35 61 312 305 277 190 265 210 202 169 188 201 274 220 286 313 299 344 310 325 324 328 332 332 335
341 268 7 316 240 33 289 345 339 303 289 289 287 272 264 251 251 255 245 138 31 157 284 93 302 285 270 333 287 250 243 229 290 267 248 276 271 291 294 328 334 335 340 334 331
15 306 3 294 302 46 353 317 288 306 317 323 293 253 274 271 278 252 264 133 30 45 103 142 213 308 282 161 138 229 196 242 269 273 250 260 276 166 302 343 348 350 2 346 346
14 303 50 19 101 345 325 319 300 316 279 297 313 323 318 267 239 274 263 217 335 313 263 174 223 236 266 296 312 292 280 259 256 261 264 243 277 298 323 334 337 347 354 342 340
12 85 19 6 103 307 297 268 297 309 305 322 120 51 350 282 283 246 322 322 300 339 46 204 244 236 265 285 285 283 284 274 249 237 244 273 281 297 312 321 322 324 358 347 359
35 320 342 267 259 256 284 238 309 315 282 324 15 344 309 274 282 302 324 278 269 294 319 331 271 306 292 285 292 292 273 269 253 249 252 263 276 286 302 308 298 331 40 5 15
96 353 288 297 281 244 241 183 73 5 84 63 36 342 299 284 308 315 295 278 266 265 268 273 270 276 273 326 316 286 288 209 182 200 209 225 256 288 312 305 280 305 123 89 42